Location: Musselshell
(46.5176°N, 108.0911°W)
Time: 01:53:34
(UTC+00:00)

VELOX 1 - Pass Details

Date: 04 July 2022
Orbit: 623 x 639 km, 98.4° (Epoch: 17 August)

Event Time Altitude Azimuth Distance (km) Brightness Sun altitude
Rises 10:20:04 0° 122° (ESE) 2,928 ? -9.2°
Reaches altitude 10° 10:22:51 10° 103° (ESE) 2,027 ? -8.9°
Maximum altitude 10:25:47 18° 61° (ENE) 1,579 ? -8.6°
Drops below altitude 10° 10:28:45 10° 19° (NNE) 2,041 ? -8.2°
Sets 10:31:33 0° 1° (N) 2,957 ? -7.9°
